When you browse on this site, cookies collect data to enhance your experience and personalize the content and advertising you see.
Visit our Privacy Policy to learn more. By continuing to use the site, you agree to this use of cookies and data.
  • In Hungary
  • List of Countries
  • For 7 days
  • Water Temperature
  • Satellite Maps
  • Weather Map
  • News
  • Weather Widgets
  • user-avatar
    Login

    Hourly Weather Khalilabad

    Today, 20 March, Wednesday

    Time Temperature Precipitation Wind Pressure Humidity
    00:00 +23°C° 0 mm 2 mps 750 mmHg 30%
    01:00 +21°C° 0 mm 2 mps 749 mmHg 31%
    02:00 +21°C° 0 mm 2 mps 749 mmHg 32%
    03:00 +20°C° 0 mm 2 mps 749 mmHg 34%
    04:00 +21°C° 0 mm 1 mps 749 mmHg 36%
    05:00 +20°C° 0 mm 1 mps 749 mmHg 38%
    06:00 +19°C° 0 mm 1 mps 749 mmHg 42%
    07:00 +21°C° 0 mm 1 mps 749 mmHg 39%
    08:00 +23°C° 0 mm 1 mps 750 mmHg 37%
    09:00 +25°C° 0 mm 1 mps 750 mmHg 35%
    10:00 +28°C° 0 mm 1 mps 750 mmHg 31%
    11:00 +30°C° 0 mm 1 mps 750 mmHg 27%
    12:00 +32°C° 0 mm 2 mps 750 mmHg 24%
    13:00 +34°C° 0 mm 2 mps 750 mmHg 21%
    14:00 +35°C° 0 mm 3 mps 749 mmHg 19%
    15:00 +36°C° 0 mm 4 mps 749 mmHg 17%
    16:00 +35°C° 0 mm 3 mps 749 mmHg 20%
    17:00 +34°C° 0 mm 3 mps 748 mmHg 22%
    18:00 +32°C° 0 mm 2 mps 748 mmHg 25%
    19:00 +30°C° 0 mm 2 mps 749 mmHg 26%
    20:00 +29°C° 0 mm 1 mps 749 mmHg 26%
    21:00 +27°C° 0 mm 1 mps 749 mmHg 27%
    22:00 +27°C° 0 mm 1 mps 749 mmHg 28%
    23:00 +26°C° 0 mm 2 mps 749 mmHg 28%

    Tomorrow, 21 March, Thursday

    Time Temperature Precipitation Wind Pressure Humidity
    00:00 +26°C° 0 mm 2 mps 749 mmHg 29%
    01:00 +25°C° 0 mm 2 mps 749 mmHg 32%
    02:00 +24°C° 0 mm 2 mps 749 mmHg 36%
    03:00 +23°C° 0 mm 2 mps 748 mmHg 40%
    04:00 +23°C° 0 mm 2 mps 749 mmHg 41%
    05:00 +21°C° 0 mm 2 mps 749 mmHg 43%
    06:00 +20°C° 0 mm 2 mps 749 mmHg 44%
    07:00 +23°C° 0 mm 2 mps 749 mmHg 41%
    08:00 +25°C° 0 mm 2 mps 750 mmHg 37%
    09:00 +27°C° 0 mm 2 mps 751 mmHg 33%
    10:00 +30°C° 0 mm 2 mps 751 mmHg 30%
    11:00 +32°C° 0 mm 2 mps 751 mmHg 26%
    12:00 +35°C° 0 mm 2 mps 751 mmHg 23%
    13:00 +36°C° 0 mm 2 mps 750 mmHg 21%
    14:00 +36°C° 0 mm 1 mps 749 mmHg 19%
    15:00 +37°C° 0 mm 1 mps 748 mmHg 17%
    16:00 +36°C° 0 mm 1 mps 748 mmHg 19%
    17:00 +35°C° 0 mm 1 mps 748 mmHg 21%
    18:00 +34°C° 0 mm 1 mps 747 mmHg 23%
    19:00 +32°C° 0 mm 1 mps 748 mmHg 24%
    20:00 +31°C° 0 mm 1 mps 748 mmHg 26%
    21:00 +29°C° 0 mm 2 mps 749 mmHg 27%
    22:00 +29°C° 0 mm 2 mps 749 mmHg 28%
    23:00 +28°C° 0 mm 2 mps 749 mmHg 30%

    Day after tomorrow, 22 March, Friday

    Time Temperature Precipitation Wind Pressure Humidity
    00:00 +27°C° 0 mm 2 mps 749 mmHg 31%
    01:00 +26°C° 0 mm 2 mps 748 mmHg 33%
    02:00 +26°C° 0 mm 2 mps 748 mmHg 34%
    03:00 +25°C° 0 mm 2 mps 748 mmHg 36%
    04:00 +24°C° 0 mm 2 mps 748 mmHg 35%
    05:00 +24°C° 0 mm 1 mps 748 mmHg 34%
    06:00 +23°C° 0 mm 1 mps 748 mmHg 34%
    07:00 +25°C° 0 mm 2 mps 749 mmHg 30%
    08:00 +27°C° 0 mm 2 mps 750 mmHg 26%
    09:00 +29°C° 0 mm 2 mps 750 mmHg 22%
    10:00 +31°C° 0 mm 2 mps 750 mmHg 20%
    11:00 +35°C° 0 mm 2 mps 750 mmHg 18%
    12:00 +36°C° 0 mm 1 mps 750 mmHg 16%
    13:00 +37°C° 0 mm 2 mps 750 mmHg 15%
    14:00 +38°C° 0 mm 2 mps 749 mmHg 15%
    15:00 +38°C° 0 mm 3 mps 748 mmHg 14%
    16:00 +37°C° 0 mm 3 mps 748 mmHg 17%
    17:00 +36°C° 0 mm 3 mps 747 mmHg 19%
    18:00 +35°C° 0 mm 3 mps 747 mmHg 22%
    19:00 +33°C° 0 mm 3 mps 748 mmHg 23%
    20:00 +30°C° 0 mm 3 mps 749 mmHg 23%
    21:00 +29°C° 0 mm 3 mps 749 mmHg 24%
    22:00 +28°C° 0 mm 3 mps 749 mmHg 25%
    23:00 +27°C° 0 mm 3 mps 749 mmHg 26%

    23 March, Saturday

    Time Temperature Precipitation Wind Pressure Humidity
    00:00 +26°C° 0 mm 4 mps 749 mmHg 27%
    01:00 +26°C° 0 mm 4 mps 749 mmHg 28%
    02:00 +25°C° 0 mm 4 mps 749 mmHg 28%
    03:00 +25°C° 0 mm 4 mps 748 mmHg 29%
    04:00 +23°C° 0 mm 4 mps 748 mmHg 30%
    05:00 +22°C° 0 mm 3 mps 748 mmHg 31%
    06:00 +21°C° 0 mm 3 mps 748 mmHg 32%
    07:00 +23°C° 0 mm 4 mps 749 mmHg 31%
    08:00 +25°C° 0 mm 4 mps 750 mmHg 30%
    09:00 +27°C° 0 mm 5 mps 750 mmHg 29%
    10:00 +29°C° 0 mm 5 mps 750 mmHg 25%
    11:00 +32°C° 0 mm 5 mps 750 mmHg 21%
    12:00 +35°C° 0 mm 5 mps 750 mmHg 17%
    13:00 +35°C° 0 mm 5 mps 749 mmHg 16%
    14:00 +36°C° 0 mm 6 mps 748 mmHg 15%
    15:00 +38°C° 0 mm 6 mps 747 mmHg 13%
    16:00 +36°C° 0 mm 5 mps 747 mmHg 15%
    17:00 +35°C° 0 mm 5 mps 747 mmHg 17%
    18:00 +34°C° 0 mm 4 mps 747 mmHg 19%
    19:00 +32°C° 0 mm 4 mps 747 mmHg 19%
    20:00 +29°C° 0 mm 4 mps 748 mmHg 20%
    21:00 +27°C° 0 mm 4 mps 748 mmHg 21%
    22:00 +27°C° 0 mm 4 mps 749 mmHg 20%
    23:00 +26°C° 0 mm 4 mps 749 mmHg 20%

    24 March, Sunday

    Time Temperature Precipitation Wind Pressure Humidity
    00:00 +26°C° 0 mm 5 mps 749 mmHg 19%
    01:00 +25°C° 0 mm 5 mps 748 mmHg 20%
    02:00 +25°C° 0 mm 5 mps 748 mmHg 20%
    03:00 +23°C° 0 mm 5 mps 747 mmHg 21%
    04:00 +22°C° 0 mm 5 mps 747 mmHg 23%
    05:00 +22°C° 0 mm 4 mps 747 mmHg 26%
    06:00 +21°C° 0 mm 4 mps 747 mmHg 28%
    07:00 +23°C° 0 mm 5 mps 748 mmHg 27%
    08:00 +25°C° 0 mm 5 mps 748 mmHg 26%
    09:00 +27°C° 0 mm 6 mps 749 mmHg 25%
    10:00 +29°C° 0 mm 6 mps 749 mmHg 23%
    11:00 +32°C° 0 mm 6 mps 749 mmHg 20%
    12:00 +34°C° 0 mm 6 mps 749 mmHg 17%
    13:00 +35°C° 0 mm 6 mps 748 mmHg 16%
    14:00 +36°C° 0 mm 6 mps 747 mmHg 15%
    15:00 +38°C° 0 mm 7 mps 747 mmHg 13%
    16:00 +36°C° 0 mm 6 mps 747 mmHg 15%
    17:00 +35°C° 0 mm 4 mps 747 mmHg 17%
    18:00 +34°C° 0 mm 3 mps 747 mmHg 19%
    19:00 +31°C° 0 mm 3 mps 747 mmHg 21%
    20:00 +29°C° 0 mm 3 mps 748 mmHg 22%
    21:00 +28°C° 0 mm 4 mps 748 mmHg 24%
    22:00 +27°C° 0 mm 4 mps 748 mmHg 25%
    23:00 +26°C° 0 mm 4 mps 749 mmHg 26%

    25 March, Monday

    Time Temperature Precipitation Wind Pressure Humidity
    00:00 +26°C° 0 mm 4 mps 749 mmHg 26%
    01:00 +25°C° 0 mm 3 mps 748 mmHg 28%
    02:00 +24°C° 0 mm 3 mps 748 mmHg 30%
    03:00 +24°C° 0 mm 3 mps 748 mmHg 31%
    04:00 +22°C° 0 mm 3 mps 748 mmHg 33%
    05:00 +21°C° 0 mm 3 mps 748 mmHg 34%
    06:00 +21°C° 0 mm 2 mps 748 mmHg 36%
    07:00 +24°C° 0 mm 3 mps 749 mmHg 34%
    08:00 +25°C° 0 mm 3 mps 749 mmHg 32%
    09:00 +27°C° 0 mm 3 mps 750 mmHg 30%
    10:00 +30°C° 0 mm 3 mps 750 mmHg 25%
    11:00 +33°C° 0 mm 4 mps 750 mmHg 21%
    12:00 +35°C° 0 mm 4 mps 750 mmHg 17%
    13:00 +37°C° 0 mm 5 mps 749 mmHg 16%
    14:00 +39°C° 0 mm 6 mps 749 mmHg 15%
    15:00 +40°C° 0 mm 7 mps 748 mmHg 14%
    16:00 +39°C° 0 mm 6 mps 748 mmHg 15%
    17:00 +37°C° 0 mm 5 mps 748 mmHg 17%
    18:00 +36°C° 0 mm 4 mps 747 mmHg 19%
    19:00 +34°C° 0 mm 4 mps 748 mmHg 20%
    20:00 +32°C° 0 mm 4 mps 749 mmHg 22%
    21:00 +30°C° 0 mm 4 mps 749 mmHg 24%
    22:00 +29°C° 0 mm 4 mps 749 mmHg 24%
    23:00 +29°C° 0 mm 4 mps 749 mmHg 24%
    Show more